Location: ??
(35.4032°N, 139.3073°E)
Time: 03:19:31
(UTC+00:00)

Cosmos 1048 Rocket - Pass Details

Date: 13 April 2024
Orbit: 742 x 788 km, 74.0° (Epoch: 25 May)

Event Time Altitude Azimuth Distance (km) Brightness Sun altitude
Exits shadow 19:18:16 - 201° (SSW) 3,045 6.7 -11.3°
Reaches altitude 10° 19:20:06 10° 203° (SSW) 2,334 6.1 -10.9°
Maximum altitude 19:25:24 72° 288° (WNW) 819 4.0 -9.9°
Drops below altitude 10° 19:30:41 10° 13° (NNE) 2,324 6.9 -8.9°
Sets 19:33:04 0° 16° (NNE) 3,248 7.8 -8.4°
